Regional Weather Roundup
Issued by NWS Little Rock, AR

Home | Current Version | Previous Version | Graphics & Text | Print | Product List | Glossary On
Versions: 1 2 3 4 5 6 7 8 9 10 11 12 13 14 15 16 17 18 19 20 21 22 23 24 25 26 27 28 29 30 31
000
ASUS44 KLZK 201905
RWRLZK

WEATHER ROUNDUP FOR ARKANSAS
NATIONAL WEATHER SERVICE LITTLE ROCK AR
200 PM CDT FRI APR 20 2018

NOTE: "FAIR" INDICATES FEW OR NO CLOUDS BELOW 12,000 FEET WITH NO
SIGNIFICANT WEATHER AND/OR OBSTRUCTIONS TO VISIBILITY.

ARZ001-003-010-029-202000-
NORTHWEST ARKANSAS

CITY           SKY/WX    TMP DP  RH WIND       PRES   REMARKS
FAYETTEVILLE   SUNNY     65  22  19 SE13      30.29F
FORT SMITH     SUNNY     63  31  30 SE10G21   30.30F
HARRISON       SUNNY     62  30  29 SE10      30.34F
BENTONVILLE    SUNNY     62  29  28 SE10G18   30.31F
ROGERS         SUNNY     62  28  27 SE12G18   30.30F
SILOAM SPGS    SUNNY     63  30  28 SE8       30.30F
SPRINGDALE     SUNNY     63  32  31 SE6G14    30.31F
$$

ARZ004-005-016-202000-
NORTH CENTRAL ARKANSAS

CITY           SKY/WX    TMP DP  RH WIND       PRES   REMARKS
BATESVILLE     SUNNY     63  24  22 E12       30.36F
FLIPPIN        SUNNY     64  28  25 E12G18    30.34F
MTN HOME       SUNNY     64  26  23 SE9       30.34F
$$

ARZ040-041-202000-
WEST CENTRAL ARKANSAS

CITY           SKY/WX    TMP DP  RH WIND       PRES   REMARKS
MENA           SUNNY     64  34  32 E10       30.29F
MOUNT IDA      SUNNY     63  36  36 VRB3      30.28F
$$

ARZ009-017-025-026-028-202000-
NORTHEAST ARKANSAS

CITY           SKY/WX    TMP DP  RH WIND       PRES   REMARKS
CORNING        FAIR      63  23  22 NE13G20   30.39F
JONESBORO      FAIR      63  33  32 NE14      30.37F
NEWPORT        FAIR      63  24  22 E15       30.36F
WALNUT RIDGE   FAIR      64  22  20 NE10      30.38F
BLYTHEVILLE    FAIR      63  30  28 E8        30.38F
$$

ARZ022-023-033-042-044-202000-
CENTRAL ARKANSAS

CITY           SKY/WX    TMP DP  RH WIND       PRES   REMARKS
LITTLE ROCK    FAIR      64  33  31 E10       30.34F
N LITTLE ROCK    N/A     64  38  38 E8        30.32F
JACKSONVILLE   SUNNY     64  33  32 E12       30.33F
CONWAY           N/A     64  32  29 E14       30.33F
SEARCY         FAIR      64  33  31 NE8G17    30.35F
HOT SPRINGS    SUNNY     65  33  30 SE9G23    30.32F
RUSSELLVILLE   MOSUNNY   62  31  31 E12G17    30.32F
CLINTON        FAIR      63  32  31 E12       30.34F
$$

ARZ036-202000-
EAST ARKANSAS

CITY           SKY/WX    TMP DP  RH WIND       PRES   REMARKS
WEST MEMPHIS   FAIR      66  36  32 E13       30.33F
$$

ARZ050-053-066-070-073-202000-
SOUTHWEST ARKANSAS

CITY           SKY/WX    TMP DP  RH WIND       PRES   REMARKS
ARKADELPHIA    FAIR      63  38  39 VRB5      30.32F
CAMDEN         FAIR      66  30  26 CALM      30.30F
TEXARKANA      SUNNY     62  39  42 NE10G20   30.29F
EL DORADO        N/A     64  36  35 NE14      30.30F
DE QUEEN       SUNNY     63  37  38 E10G22    30.28F
$$

ARZ056-057-069-202000-
SOUTHEAST ARKANSAS

CITY           SKY/WX    TMP DP  RH WIND       PRES   REMARKS
PINE BLUFF     FAIR      63  34  33 NE12G17   30.33F
STUTTGART      FAIR      64  34  32 NE14      30.34F
MONTICELLO     FAIR      64  34  32 VRB5      30.31F

$$






USA.gov is the U.S. government's official web portal to all federal, state and local government web resources and services.